When you browse on this site, cookies collect data to enhance your experience and personalize the content and advertising you see.
Visit our Privacy Policy to learn more. By continuing to use the site, you agree to this use of cookies and data.
  • In Latvia
  • List of Countries
  • For 7 days
  • Water Temperature
  • Satellite Maps
  • Weather Map
  • Weather Widgets
  • user-avatar
    Login

    Hourly Weather Juwaja

    Today, 21 January, Monday

    Time Temperature Precipitation Wind Pressure Humidity
    00:00 +12°C° 0 mm 3 mps 740 mmHg 57%
    01:00 +11°C° 0 mm 3 mps 739 mmHg 57%
    02:00 +11°C° 0 mm 3 mps 739 mmHg 57%
    03:00 +11°C° 0 mm 3 mps 739 mmHg 56%
    04:00 +11°C° 0 mm 3 mps 739 mmHg 56%
    05:00 +10°C° 0 mm 3 mps 739 mmHg 56%
    06:00 +11°C° 0 mm 3 mps 739 mmHg 56%
    07:00 +11°C° 0 mm 3 mps 739 mmHg 57%
    08:00 +12°C° 0 mm 3 mps 739 mmHg 58%
    09:00 +14°C° 0 mm 2 mps 740 mmHg 53%
    10:00 +16°C° 0 mm 2 mps 740 mmHg 48%
    11:00 +17°C° 0 mm 2 mps 740 mmHg 42%
    12:00 +17°C° 0 mm 2 mps 739 mmHg 41%
    13:00 +18°C° 0 mm 2 mps 739 mmHg 40%
    14:00 +19°C° 0 mm 1 mps 739 mmHg 39%
    15:00 +18°C° 0 mm 1 mps 739 mmHg 45%
    16:00 +15°C° 0 mm 1 mps 739 mmHg 50%
    17:00 +14°C° 0 mm 1 mps 738 mmHg 56%
    18:00 +14°C° 0 mm 1 mps 739 mmHg 57%
    19:00 +13°C° 0 mm 1 mps 739 mmHg 58%
    20:00 +13°C° 0 mm 1 mps 739 mmHg 60%
    21:00 +13°C° 0 mm 1 mps 739 mmHg 59%
    22:00 +13°C° 0 mm 1 mps 739 mmHg 58%
    23:00 +12°C° 0 mm 1 mps 739 mmHg 56%

    Tomorrow, 22 January, Tuesday

    Time Temperature Precipitation Wind Pressure Humidity
    00:00 +12°C° 0 mm 1 mps 739 mmHg 55%
    01:00 +12°C° 0 mm 2 mps 738 mmHg 53%
    02:00 +12°C° 0 mm 2 mps 738 mmHg 52%
    03:00 +12°C° 0 mm 2 mps 738 mmHg 51%
    04:00 +12°C° 0 mm 1 mps 738 mmHg 50%
    05:00 +12°C° 0 mm 1 mps 738 mmHg 49%
    06:00 +12°C° 0 mm 1 mps 738 mmHg 51%
    07:00 +13°C° 0 mm 1 mps 738 mmHg 52%
    08:00 +14°C° 0 mm 1 mps 739 mmHg 53%
    09:00 +15°C° 0 mm 1 mps 739 mmHg 49%
    10:00 +16°C° 0 mm 1 mps 739 mmHg 45%
    11:00 +17°C° 0 mm 0 mps 739 mmHg 40%
    12:00 +19°C° 0 mm 1 mps 739 mmHg 42%
    13:00 +19°C° 0 mm 1 mps 738 mmHg 43%
    14:00 +18°C° 0 mm 2 mps 738 mmHg 45%
    15:00 +16°C° 0 mm 2 mps 738 mmHg 51%
    16:00 +15°C° 0 mm 2 mps 738 mmHg 57%
    17:00 +14°C° 0 mm 1 mps 738 mmHg 63%
    18:00 +13°C° 0 mm 1 mps 738 mmHg 63%
    19:00 +13°C° 0 mm 1 mps 738 mmHg 63%
    20:00 +12°C° 0 mm 1 mps 739 mmHg 63%
    21:00 +12°C° 0 mm 1 mps 739 mmHg 61%
    22:00 +12°C° 0 mm 1 mps 739 mmHg 60%
    23:00 +12°C° 0 mm 1 mps 739 mmHg 58%

    Day after tomorrow, 23 January, Wednesday

    Time Temperature Precipitation Wind Pressure Humidity
    00:00 +11°C° 0 mm 1 mps 739 mmHg 57%
    01:00 +11°C° 0 mm 1 mps 739 mmHg 56%
    02:00 +11°C° 0 mm 1 mps 739 mmHg 56%
    03:00 +11°C° 0 mm 1 mps 738 mmHg 55%
    04:00 +11°C° 0 mm 1 mps 738 mmHg 55%
    05:00 +11°C° 0 mm 1 mps 738 mmHg 55%
    06:00 +11°C° 0 mm 1 mps 738 mmHg 55%
    07:00 +12°C° 0 mm 1 mps 739 mmHg 56%
    08:00 +13°C° 0 mm 2 mps 739 mmHg 57%
    09:00 +14°C° 0 mm 2 mps 739 mmHg 51%
    10:00 +16°C° 0 mm 1 mps 739 mmHg 45%
    11:00 +18°C° 0 mm 1 mps 739 mmHg 40%
    12:00 +18°C° 0 mm 1 mps 739 mmHg 39%
    13:00 +19°C° 0 mm 1 mps 738 mmHg 39%
    14:00 +18°C° 0 mm 2 mps 737 mmHg 39%
    15:00 +17°C° 0 mm 2 mps 737 mmHg 44%
    16:00 +16°C° 0 mm 2 mps 737 mmHg 49%
    17:00 +14°C° 0 mm 3 mps 737 mmHg 54%
    18:00 +13°C° 0 mm 3 mps 737 mmHg 51%
    19:00 +13°C° 0 mm 4 mps 737 mmHg 49%
    20:00 +13°C° 0 mm 4 mps 737 mmHg 47%
    21:00 +13°C° 0 mm 5 mps 737 mmHg 46%
    22:00 +13°C° 0 mm 6 mps 737 mmHg 45%
    23:00 +12°C° 0 mm 7 mps 736 mmHg 44%

    24 January, Thursday

    Time Temperature Precipitation Wind Pressure Humidity
    00:00 +12°C° 0 mm 7 mps 736 mmHg 44%
    01:00 +12°C° 0 mm 7 mps 736 mmHg 44%
    02:00 +12°C° 0 mm 7 mps 735 mmHg 44%
    03:00 +11°C° 0 mm 7 mps 735 mmHg 45%
    04:00 +11°C° 0 mm 6 mps 735 mmHg 45%
    05:00 +11°C° 0 mm 6 mps 735 mmHg 45%
    06:00 +13°C° 0 mm 6 mps 735 mmHg 46%
    07:00 +13°C° 0 mm 6 mps 735 mmHg 47%
    08:00 +12°C° 0 mm 7 mps 736 mmHg 48%
    09:00 +15°C° 0 mm 6 mps 736 mmHg 47%
    10:00 +16°C° 0 mm 6 mps 736 mmHg 45%
    11:00 +19°C° 0 mm 6 mps 736 mmHg 44%
    12:00 +19°C° 0 mm 6 mps 735 mmHg 44%
    13:00 +19°C° 0 mm 6 mps 734 mmHg 44%
    14:00 +20°C° 0 mm 6 mps 734 mmHg 44%
    15:00 +17°C° 0 mm 6 mps 734 mmHg 45%
    16:00 +16°C° 0 mm 6 mps 734 mmHg 47%
    17:00 +15°C° 0 mm 5 mps 734 mmHg 49%
    18:00 +15°C° 0 mm 5 mps 734 mmHg 47%
    19:00 +14°C° 0 mm 4 mps 735 mmHg 46%
    20:00 +14°C° 0 mm 3 mps 735 mmHg 44%
    21:00 +14°C° 0 mm 2 mps 735 mmHg 53%
    22:00 +13°C° 0 mm 2 mps 736 mmHg 61%
    23:00 +13°C° 0 mm 1 mps 736 mmHg 70%

    25 January, Friday

    Time Temperature Precipitation Wind Pressure Humidity
    00:00 +12°C° 0 mm 1 mps 737 mmHg 74%
    01:00 +12°C° 0 mm 1 mps 737 mmHg 77%
    02:00 +12°C° 0 mm 1 mps 737 mmHg 80%
    03:00 +12°C° 0 mm 1 mps 737 mmHg 80%
    04:00 +11°C° 0 mm 1 mps 737 mmHg 80%
    05:00 +11°C° 0 mm 1 mps 737 mmHg 79%
    06:00 +12°C° 0 mm 1 mps 738 mmHg 77%
    07:00 +13°C° 0 mm 1 mps 738 mmHg 75%
    08:00 +14°C° 0 mm 1 mps 739 mmHg 73%
    09:00 +15°C° 0 mm 1 mps 739 mmHg 66%
    10:00 +16°C° 0 mm 1 mps 739 mmHg 58%
    11:00 +16°C° 0 mm 0 mps 739 mmHg 50%
    12:00 +18°C° 0 mm 1 mps 738 mmHg 49%
    13:00 +19°C° 0 mm 1 mps 738 mmHg 48%
    14:00 +19°C° 0 mm 1 mps 738 mmHg 47%
    15:00 +18°C° 0 mm 1 mps 737 mmHg 54%
    16:00 +15°C° 0 mm 1 mps 737 mmHg 60%
    17:00 +14°C° 0 mm 1 mps 737 mmHg 67%
    18:00 +14°C° 0 mm 1 mps 737 mmHg 66%
    19:00 +13°C° 0 mm 1 mps 737 mmHg 65%
    20:00 +13°C° 0 mm 1 mps 737 mmHg 64%
    21:00 +13°C° 0 mm 1 mps 737 mmHg 60%
    22:00 +13°C° 0 mm 1 mps 737 mmHg 57%
    23:00 +13°C° 0 mm 1 mps 737 mmHg 53%

    26 January, Saturday

    Time Temperature Precipitation Wind Pressure Humidity
    00:00 +12°C° 0 mm 1 mps 737 mmHg 53%
    01:00 +12°C° 0 mm 1 mps 736 mmHg 52%
    02:00 +12°C° 0 mm 1 mps 736 mmHg 51%
    03:00 +12°C° 0 mm 1 mps 736 mmHg 51%
    04:00 +12°C° 0 mm 1 mps 736 mmHg 50%
    05:00 +12°C° 0 mm 1 mps 736 mmHg 50%
    06:00 +12°C° 0 mm 2 mps 736 mmHg 50%
    07:00 +13°C° 0 mm 2 mps 736 mmHg 50%
    08:00 +14°C° 0 mm 2 mps 737 mmHg 50%
    09:00 +16°C° 0 mm 1 mps 737 mmHg 46%
    10:00 +18°C° 0 mm 1 mps 737 mmHg 41%
    11:00 +20°C° 0 mm 1 mps 737 mmHg 36%
    12:00 +20°C° 0 mm 1 mps 736 mmHg 37%
    13:00 +20°C° 0 mm 1 mps 736 mmHg 37%
    14:00 +20°C° 0 mm 1 mps 735 mmHg 38%
    15:00 +19°C° 0 mm 1 mps 735 mmHg 44%
    16:00 +15°C° 0 mm 0 mps 735 mmHg 50%
    17:00 +14°C° 0 mm 0 mps 735 mmHg 56%
    18:00 +14°C° 0 mm 0 mps 735 mmHg 53%
    19:00 +14°C° 0 mm 1 mps 735 mmHg 50%
    20:00 +14°C° 0 mm 1 mps 735 mmHg 47%
    21:00 +14°C° 0 mm 1 mps 735 mmHg 45%
    22:00 +14°C° 0 mm 1 mps 735 mmHg 44%
    23:00 +14°C° 0 mm 1 mps 735 mmHg 42%
    Show more